Wind_Speed
26 24 20 19 16 13 12 12 11 11 10 9 8 8 7 6 6 6 5 5 4 3 3 4 2 1 2 3 4 5 5 5 4 5 6 6 7 8 6 9 9 8 6
30 26 21 19 17 13 12 11 10 10 9 10 9 9 7 4 3 1 1 3 5 6 6 6 6 5 4 4 4 3 3 4 5 4 4 4 5 5 5 8 7 7 6
29 26 22 19 16 14 13 11 9 9 6 4 2 2 2 2 2 3 4 4 5 4 5 5 6 6 7 8 8 7 7 6 5 5 4 4 3 3 4 4 5 6 6
28 25 23 19 15 14 13 11 8 5 3 2 1 0 2 2 2 2 2 3 4 5 5 6 6 7 7 8 8 8 10 11 10 8 6 5 4 5 5 4 4 4 5
27 24 21 18 15 14 12 9 6 3 2 1 1 2 2 2 2 3 3 4 5 5 6 6 6 6 7 7 8 9 9 10 11 12 11 8 7 7 6 6 8 6 6
26 23 19 16 15 14 11 8 4 2 2 1 2 2 2 3 3 4 4 5 6 6 6 7 8 8 8 8 8 8 8 8 8 10 10 10 9 8 7 9 9 7 8
25 23 18 16 15 13 9 6 3 2 1 1 2 2 3 3 4 5 5 6 7 7 8 9 9 9 9 9 9 8 8 7 7 6 6 6 6 6 7 10 11 8 8
26 23 20 17 14 12 9 5 3 1 1 2 3 3 3 4 4 5 6 7 8 8 9 9 9 10 10 10 9 9 8 7 8 8 6 5 3 1 4 6 8 7 6
27 25 22 17 15 11 8 5 3 2 3 3 3 3 4 4 5 6 7 8 8 9 10 10 10 10 11 11 10 9 8 7 7 7 8 8 4 1 4 4 6 6 6
26 24 18 17 14 11 7 5 4 4 3 3 3 3 4 5 6 7 8 9 10 11 11 12 12 12 11 11 11 11 10 8 6 5 4 5 1 3 4 3 5 9 10
25 22 19 17 14 10 8 6 4 4 3 3 3 4 5 6 7 8 9 10 11 11 12 12 12 12 12 11 11 10 10 9 7 5 2 1 1 3 0 1 4 7 10
28 23 20 17 13 10 8 6 5 5 4 3 4 4 5 6 7 8 9 10 11 11 12 12 12 12 11 11 10 10 10 10 9 8 5 3 3 4 5 5 6 7 7
27 24 20 16 14 11 8 7 6 5 4 4 3 4 5 6 7 8 9 10 10 11 11 12 12 11 11 11 10 10 10 9 10 9 9 8 5 6 5 3 3 3 3
28 23 20 17 14 12 9 8 6 5 4 3 3 4 5 6 7 8 8 9 10 10 11 12 12 12 11 10 10 10 9 9 10 10 10 10 6 6 2 1 2 2 0
27 22 19 17 14 11 9 8 7 5 4 4 3 3 5 5 6 7 8 8 9 10 11 11 12 11 10 10 10 9 8 8 9 10 11 9 6 3 2 4 4 2 4
27 23 20 18 15 12 11 9 7 5 4 3 3 3 3 4 5 6 7 7 8 9 10 10 11 11 10 10 9 8 7 7 8 10 11 11 10 8 7 6 5 4 6
26 21 20 17 15 13 11 10 8 6 4 3 3 2 2 3 4 5 6 7 8 8 9 9 10 10 10 9 7 6 6 6 7 8 9 10 10 9 9 9 9 8 7
26 22 20 17 15 14 12 10 8 6 5 4 3 2 1 2 3 4 5 6 6 6 6 7 8 8 8 8 6 5 4 4 5 5 7 8 8 8 8 9 10 10 9
23 21 20 18 16 14 13 11 9 7 5 4 3 2 0 2 2 2 3 4 5 5 6 6 6 7 7 8 7 5 5 5 5 4 5 7 7 8 8 9 11 10 10
23 21 19 18 17 15 14 11 10 8 5 4 4 3 1 1 1 1 2 3 4 5 5 7 8 8 8 8 7 7 7 6 6 6 6 7 7 7 8 9 10 11 10
24 22 20 18 17 15 13 13 11 8 5 5 5 4 3 2 1 1 2 2 3 5 6 8 9 9 9 9 7 9 8 6 7 7 7 10 8 8 8 10 10 12 11
23 21 20 18 16 15 14 13 10 8 6 6 6 5 5 3 3 3 3 3 5 7 9 10 10 10 11 10 9 9 3 6 4 8 11 8 8 9 10 11 11 12 12
23 22 21 18 16 15 14 12 10 7 6 7 7 6 5 5 5 5 5 5 7 8 10 12 12 12 12 12 10 6 4 3 9 6 8 8 8 11 12 13 13 14 13
21 20 19 18 17 16 14 12 11 8 7 8 7 7 7 7 7 8 7 7 9 11 13 14 14 14 13 12 11 10 9 10 5 6 8 10 15 12 12 15 16 16 14
18 19 20 20 18 16 14 13 12 10 11 10 8 9 9 8 9 9 9 9 11 13 14 14 14 14 14 13 12 12 12 12 12 12 16 14 14 17 18 19 17 17 14
19 24 22 20 19 16 13 14 14 12 14 10 10 11 10 10 10 10 10 11 13 14 14 15 14 14 14 14 13 13 14 14 14 13 16 21 22 22 18 18 17 17 15
Wind_Direction
170 166 164 157 156 153 141 135 126 118 111 106 108 108 108 110 112 111 105 97 83 55 43 40 30 7 12 14 19 14 8 1 5 9 14 19 22 21 32 23 32 36 46
163 163 160 157 162 156 148 140 131 121 131 136 136 134 137 144 158 118 241 291 294 289 286 288 295 311 318 329 330 334 340 325 326 336 351 0 13 26 30 26 29 38 46
161 159 158 163 166 158 151 142 145 148 144 166 195 229 273 292 286 281 283 283 285 292 299 299 296 297 293 287 280 284 288 308 300 300 311 320 328 354 2 23 25 27 33
160 159 162 170 166 159 154 153 154 156 170 173 134 328 329 332 338 337 328 325 331 338 335 330 326 319 308 299 292 284 278 274 283 290 287 287 285 294 314 310 320 346 10
162 162 164 168 166 164 158 159 161 159 143 103 47 11 4 7 19 11 8 7 4 1 354 351 346 339 330 324 311 302 293 285 278 276 275 273 270 276 285 302 290 303 314
162 161 165 166 166 162 163 166 165 155 117 64 31 29 33 34 41 39 24 22 17 9 360 358 355 350 345 342 337 331 326 313 299 287 280 272 270 275 280 291 308 284 299
160 161 166 167 161 165 164 165 164 148 107 66 68 64 62 58 40 32 29 18 16 8 360 0 360 354 350 348 343 340 336 335 341 335 307 286 280 283 289 284 301 301 287
163 161 167 176 170 166 168 167 162 140 86 81 77 67 60 48 45 38 29 22 10 10 4 4 4 358 352 350 347 348 351 358 10 21 36 45 21 348 296 312 291 298 305
168 168 173 171 167 171 167 167 158 131 109 94 78 65 55 49 44 38 30 24 13 12 11 11 9 5 3 7 7 8 17 27 28 34 54 76 81 358 289 309 304 310 332
172 177 171 169 170 173 172 171 158 145 129 112 88 70 57 50 42 37 31 23 18 16 16 17 14 13 16 23 23 28 38 40 39 39 65 89 355 26 27 350 328 313 307
176 176 171 175 175 175 177 172 162 147 127 100 85 68 62 52 40 33 28 26 21 19 21 23 23 21 24 26 30 37 41 43 41 39 47 178 186 49 25 23 345 317 297
176 175 174 178 179 180 180 169 162 146 126 107 88 71 56 46 40 33 26 24 21 24 26 29 29 28 30 34 35 38 41 46 46 45 32 346 301 339 336 307 294 314 328
175 176 175 179 181 180 181 168 159 146 124 109 89 73 62 48 38 31 27 23 28 30 32 35 36 33 35 37 37 39 43 41 42 39 37 29 50 65 51 33 80 72 359
177 179 180 180 182 180 178 170 162 148 131 114 96 80 65 50 40 31 28 28 31 36 36 36 37 37 37 38 40 41 45 44 41 36 23 28 85 116 128 134 132 100 308
183 183 186 188 186 182 180 173 165 152 141 123 110 88 70 55 39 31 33 37 39 39 39 38 39 38 39 42 43 45 49 45 36 28 27 31 36 40 127 168 193 219 244
185 186 192 190 187 185 184 177 166 160 147 136 114 92 72 57 37 33 38 40 39 39 39 38 38 37 36 38 38 42 42 41 36 29 33 38 37 31 20 7 357 332 329
184 192 198 195 188 187 185 179 171 167 159 152 139 114 76 42 30 36 43 41 36 32 32 31 29 29 28 30 27 30 31 34 30 33 35 34 37 37 34 31 25 17 10
187 191 199 194 192 188 185 182 177 173 165 169 162 140 96 27 25 38 42 39 33 30 27 20 18 18 17 17 7 5 3 4 6 14 20 23 24 24 25 27 23 20 17
190 194 198 195 194 191 187 186 185 180 178 182 182 177 62 357 15 32 34 35 28 21 8 358 1 360 359 0 355 348 331 324 325 335 354 3 2 6 7 10 13 14 12
191 194 197 196 194 192 190 191 191 187 185 197 204 210 247 280 302 16 21 13 8 1 350 343 340 342 343 344 347 340 323 300 300 307 320 331 328 335 346 349 357 2 3
193 193 196 197 198 196 194 197 193 193 192 211 216 223 236 247 253 287 318 338 344 338 331 334 333 329 330 336 337 329 310 295 289 293 298 307 305 312 322 334 336 348 349
200 197 198 202 203 200 196 200 198 195 199 216 223 231 239 243 245 259 287 305 321 332 329 324 322 322 324 330 333 335 319 306 283 308 296 297 293 300 301 314 318 324 327
201 206 206 204 205 205 205 207 206 204 209 220 228 237 236 239 246 256 269 294 309 313 314 316 319 321 322 322 322 321 318 274 302 293 293 292 291 300 297 301 307 308 310
207 208 207 208 208 209 209 210 215 215 223 235 238 239 237 244 252 258 273 290 303 313 318 316 314 313 312 311 309 302 286 279 289 295 290 287 294 293 297 300 303 302 300
215 218 210 207 207 212 215 220 223 227 234 237 244 240 239 245 254 264 276 291 305 313 312 309 307 306 304 302 300 297 292 287 282 275 288 292 292 294 298 299 298 297 290
191 205 207 205 207 212 218 231 230 234 240 239 244 242 240 249 259 266 278 294 304 305 306 304 302 300 297 295 292 291 289 285 286 283 282 293 299 301 301 300 299 298 289
Height
1541 1546 1550 1552 1554 1556 1557 1558 1559 1560 1561 1561 1561 1562 1562 1562 1562 1562 1562 1562 1562 1562 1561 1561 1560 1560 1560 1559 1559 1558 1558 1557 1556 1556 1556 1556 1555 1554 1554 1553 1552 1551 1551
1539 1545 1549 1553 1554 1556 1557 1558 1560 1560 1561 1561 1562 1561 1562 1562 1562 1562 1562 1562 1562 1561 1561 1561 1560 1559 1559 1559 1558 1558 1557 1557 1556 1556 1555 1555 1555 1554 1554 1553 1552 1551 1551
1540 1544 1548 1552 1554 1556 1557 1558 1559 1560 1561 1561 1561 1561 1562 1562 1562 1562 1561 1561 1560 1560 1560 1559 1559 1558 1558 1558 1557 1557 1556 1556 1555 1555 1555 1554 1554 1554 1554 1553 1552 1552 1551
1541 1545 1548 1551 1554 1556 1557 1558 1560 1560 1561 1561 1561 1561 1561 1561 1561 1561 1561 1560 1560 1559 1559 1558 1557 1557 1556 1556 1555 1555 1554 1554 1554 1554 1554 1554 1554 1554 1553 1553 1552 1552 1551
1541 1546 1549 1552 1554 1556 1557 1559 1560 1560 1560 1561 1561 1560 1560 1560 1560 1560 1560 1560 1559 1559 1558 1558 1557 1556 1555 1555 1554 1553 1553 1553 1552 1552 1552 1553 1553 1553 1553 1552 1552 1552 1551
1541 1546 1550 1552 1554 1555 1557 1558 1560 1560 1560 1561 1561 1560 1560 1560 1560 1560 1560 1559 1559 1559 1558 1557 1556 1555 1555 1554 1553 1552 1551 1551 1550 1550 1550 1551 1552 1553 1553 1552 1551 1550 1550
1541 1545 1550 1552 1554 1555 1557 1559 1559 1560 1560 1560 1560 1560 1560 1560 1560 1560 1559 1559 1558 1558 1557 1557 1556 1554 1554 1553 1552 1551 1550 1550 1549 1549 1548 1549 1550 1551 1552 1551 1550 1550 1549
1542 1545 1549 1552 1553 1556 1557 1559 1559 1560 1560 1561 1561 1561 1561 1561 1560 1560 1560 1559 1559 1558 1557 1556 1555 1554 1553 1552 1551 1550 1549 1548 1548 1548 1548 1549 1550 1550 1550 1549 1549 1549 1548
1541 1544 1548 1551 1553 1556 1557 1558 1559 1560 1560 1560 1561 1561 1561 1561 1561 1560 1560 1559 1558 1557 1556 1555 1554 1553 1552 1551 1549 1548 1548 1548 1548 1548 1549 1550 1550 1549 1549 1548 1548 1548 1548
1542 1545 1547 1551 1553 1555 1557 1558 1559 1559 1559 1560 1561 1561 1561 1561 1561 1561 1560 1559 1558 1557 1555 1554 1553 1552 1551 1550 1549 1548 1548 1548 1549 1549 1549 1550 1550 1549 1549 1548 1547 1547 1547
1541 1544 1546 1550 1552 1554 1556 1557 1558 1559 1560 1560 1561 1561 1561 1561 1561 1561 1560 1559 1558 1557 1555 1554 1553 1552 1551 1550 1549 1548 1548 1548 1549 1549 1549 1549 1549 1549 1548 1547 1547 1546 1546
1538 1542 1545 1549 1551 1553 1555 1556 1558 1558 1559 1560 1561 1561 1561 1561 1561 1560 1560 1559 1558 1557 1556 1555 1554 1553 1552 1550 1549 1549 1548 1549 1549 1549 1548 1548 1548 1548 1547 1546 1546 1545 1545
1537 1541 1544 1547 1550 1552 1554 1555 1557 1558 1559 1560 1561 1561 1561 1561 1561 1561 1560 1560 1558 1558 1557 1556 1555 1554 1553 1551 1550 1549 1549 1549 1549 1549 1548 1548 1548 1548 1548 1546 1545 1544 1544
1535 1540 1543 1546 1549 1551 1553 1554 1556 1557 1558 1560 1560 1561 1561 1561 1561 1561 1560 1560 1559 1558 1557 1556 1556 1555 1554 1553 1551 1550 1549 1549 1549 1549 1548 1548 1547 1547 1546 1546 1545 1544 1542
1534 1538 1542 1545 1548 1550 1553 1554 1555 1557 1558 1559 1560 1560 1560 1560 1561 1561 1560 1560 1559 1559 1558 1557 1557 1555 1554 1553 1552 1551 1550 1549 1550 1549 1548 1548 1547 1546 1545 1544 1543 1543 1541
1533 1537 1541 1544 1546 1549 1551 1553 1554 1556 1557 1559 1560 1560 1560 1560 1560 1560 1560 1560 1560 1560 1558 1558 1557 1556 1555 1553 1552 1551 1551 1550 1550 1549 1549 1548 1547 1546 1544 1543 1542 1540 1539
1533 1537 1541 1543 1545 1548 1550 1552 1554 1555 1557 1558 1559 1560 1560 1560 1560 1560 1560 1560 1560 1560 1559 1558 1557 1556 1555 1553 1553 1551 1551 1551 1550 1549 1549 1547 1547 1546 1545 1543 1542 1540 1538
1532 1536 1539 1542 1544 1546 1549 1551 1553 1554 1555 1557 1558 1558 1559 1560 1560 1559 1559 1559 1559 1559 1559 1558 1557 1555 1554 1553 1553 1551 1551 1550 1550 1550 1549 1547 1547 1546 1545 1544 1542 1540 1538
1531 1535 1538 1540 1543 1545 1547 1550 1552 1552 1554 1556 1557 1557 1557 1558 1559 1559 1559 1558 1558 1558 1559 1558 1557 1556 1554 1553 1553 1551 1550 1549 1550 1549 1548 1548 1547 1546 1545 1543 1542 1540 1538
1529 1533 1536 1539 1541 1543 1546 1548 1551 1551 1553 1554 1555 1556 1556 1557 1558 1558 1558 1558 1557 1558 1557 1557 1556 1556 1554 1553 1551 1550 1549 1549 1548 1548 1547 1547 1546 1545 1544 1543 1541 1540 1538
1526 1530 1534 1537 1539 1542 1543 1547 1548 1550 1551 1553 1554 1555 1556 1556 1557 1557 1557 1557 1556 1556 1556 1556 1555 1555 1553 1551 1550 1549 1548 1547 1546 1546 1545 1545 1544 1544 1543 1542 1540 1539 1537
1523 1528 1532 1536 1539 1541 1542 1544 1546 1547 1548 1551 1552 1553 1554 1555 1556 1556 1556 1556 1555 1555 1555 1554 1553 1552 1551 1549 1548 1547 1547 1547 1545 1544 1543 1542 1542 1541 1540 1540 1538 1537 1535
1519 1526 1530 1534 1537 1539 1541 1542 1544 1545 1547 1549 1550 1551 1552 1553 1554 1554 1554 1554 1554 1553 1553 1552 1551 1550 1548 1547 1546 1547 1545 1545 1544 1542 1540 1540 1539 1539 1538 1537 1536 1535 1533
1519 1526 1528 1532 1535 1538 1538 1540 1542 1543 1545 1548 1548 1549 1550 1551 1552 1552 1552 1552 1552 1552 1551 1549 1548 1547 1546 1544 1544 1543 1543 1543 1542 1540 1538 1537 1537 1536 1535 1535 1534 1533 1531
1515 1523 1527 1530 1531 1535 1536 1537 1538 1539 1543 1544 1545 1547 1548 1548 1550 1550 1550 1550 1549 1549 1548 1547 1545 1543 1543 1542 1541 1540 1540 1539 1538 1538 1535 1534 1534 1533 1532 1530 1529 1528 1527
1514 1522 1523 1525 1529 1530 1530 1533 1536 1537 1542 1540 1542 1545 1545 1546 1547 1548 1548 1547 1546 1545 1544 1543 1542 1540 1539 1538 1538 1537 1536 1536 1535 1535 1533 1531 1529 1528 1528 1527 1525 1524 1523